Year,Month,Day,Hour,Minute,Value (Times are PST for temperature in C)
2017,08,02,08,19,19.30
2017,08,02,08,20,19.40
2017,08,02,08,21,19.50
2017,08,02,08,22,19.60
2017,08,02,08,23,19.60
2017,08,02,08,24,19.70
2017,08,02,08,25,19.80
2017,08,02,08,26,19.80
2017,08,02,08,27,19.80
2017,08,02,08,28,19.80
2017,08,02,08,29,19.80
2017,08,02,08,30,19.80
2017,08,02,08,31,19.90
2017,08,02,08,32,19.90
2017,08,02,08,33,19.90
2017,08,02,08,34,20.00
2017,08,02,08,35,20.10
2017,08,02,08,36,20.10
2017,08,02,08,37,20.10
2017,08,02,08,38,20.20
2017,08,02,08,39,20.20
2017,08,02,08,40,20.20
2017,08,02,08,41,20.20
2017,08,02,08,42,20.20
2017,08,02,08,43,20.20
2017,08,02,08,44,20.20
2017,08,02,08,45,20.20
2017,08,02,08,46,20.20
2017,08,02,08,47,20.30
2017,08,02,08,48,20.30
2017,08,02,08,49,20.40
2017,08,02,08,50,20.40
2017,08,02,08,51,20.40
2017,08,02,08,52,20.50
2017,08,02,08,53,20.50
2017,08,02,08,54,20.50
2017,08,02,08,55,20.50
2017,08,02,08,56,20.60
2017,08,02,08,57,20.60
2017,08,02,08,58,20.60
2017,08,02,08,59,20.70
2017,08,02,09,00,20.70
2017,08,02,09,01,20.80
2017,08,02,09,02,20.80
2017,08,02,09,03,20.90
2017,08,02,09,04,20.90
2017,08,02,09,05,20.90
2017,08,02,09,06,21.00
2017,08,02,09,07,21.00
2017,08,02,09,08,21.10
2017,08,02,09,09,21.20
2017,08,02,09,10,21.20
2017,08,02,09,11,21.30
2017,08,02,09,12,21.30
2017,08,02,09,13,21.40
2017,08,02,09,14,21.50
2017,08,02,09,15,21.60
2017,08,02,09,16,21.60
2017,08,02,09,17,21.70
2017,08,02,09,18,21.80
2017,08,02,09,19,21.80
2017,08,02,09,20,21.90
2017,08,02,09,21,22.00
2017,08,02,09,22,22.00
2017,08,02,09,23,22.00
2017,08,02,09,24,22.10
2017,08,02,09,25,22.10
2017,08,02,09,26,22.20
2017,08,02,09,27,22.20
2017,08,02,09,28,22.20
2017,08,02,09,29,22.20
2017,08,02,09,30,22.30
2017,08,02,09,31,22.30
2017,08,02,09,32,22.40
2017,08,02,09,33,22.40
2017,08,02,09,34,22.40
2017,08,02,09,35,22.50
2017,08,02,09,36,22.50
2017,08,02,09,37,22.50
2017,08,02,09,38,22.50
2017,08,02,09,39,22.50
2017,08,02,09,40,22.60
2017,08,02,09,41,22.60
2017,08,02,09,42,22.60
2017,08,02,09,43,22.70
2017,08,02,09,44,22.70
2017,08,02,09,45,22.80
2017,08,02,09,46,22.80
2017,08,02,09,47,22.90
2017,08,02,09,48,22.90
2017,08,02,09,49,23.00
2017,08,02,09,50,23.10
2017,08,02,09,51,23.20
2017,08,02,09,52,23.30
2017,08,02,09,53,23.30
2017,08,02,09,54,23.40
2017,08,02,09,55,23.50
2017,08,02,09,56,23.60
2017,08,02,09,57,23.70
2017,08,02,09,58,23.80
2017,08,02,09,59,23.90
2017,08,02,10,00,24.00
2017,08,02,10,01,24.10
2017,08,02,10,02,24.10
2017,08,02,10,03,24.10
2017,08,02,10,04,24.10
2017,08,02,10,05,24.10
2017,08,02,10,06,24.10
2017,08,02,10,07,24.10
2017,08,02,10,08,24.10
2017,08,02,10,09,24.10
2017,08,02,10,10,24.20
2017,08,02,10,11,24.20
2017,08,02,10,12,24.30
2017,08,02,10,13,24.40
2017,08,02,10,14,24.40
2017,08,02,10,15,24.50
2017,08,02,10,16,24.50
2017,08,02,10,17,24.50
2017,08,02,10,18,24.50
2017,08,02,10,19,24.50
2017,08,02,10,20,24.50
2017,08,02,10,21,24.50
2017,08,02,10,22,24.40
2017,08,02,10,23,24.40
2017,08,02,10,24,24.30
2017,08,02,10,25,24.20
2017,08,02,10,26,24.20
2017,08,02,10,27,24.10
2017,08,02,10,28,24.10
2017,08,02,10,29,24.10
2017,08,02,10,30,24.00
2017,08,02,10,31,23.90
2017,08,02,10,32,23.90
2017,08,02,10,33,23.90
2017,08,02,10,34,23.80
2017,08,02,10,35,23.80
2017,08,02,10,36,23.80
2017,08,02,10,37,23.80
2017,08,02,10,38,23.90
2017,08,02,10,39,24.00
2017,08,02,10,40,24.10
2017,08,02,10,41,24.10
2017,08,02,10,42,24.20
2017,08,02,10,43,24.30
2017,08,02,10,44,24.40
2017,08,02,10,45,24.50
2017,08,02,10,46,24.50
2017,08,02,10,47,24.60
2017,08,02,10,48,24.60
2017,08,02,10,49,24.60
2017,08,02,10,50,24.60
2017,08,02,10,51,24.50
2017,08,02,10,52,24.50
2017,08,02,10,53,24.50
2017,08,02,10,54,24.50
2017,08,02,10,55,24.50
2017,08,02,10,56,24.50
2017,08,02,10,57,24.50
2017,08,02,10,58,24.50
2017,08,02,10,59,24.50
2017,08,02,11,00,24.50
2017,08,02,11,01,24.50
2017,08,02,11,02,24.50
2017,08,02,11,03,24.50
2017,08,02,11,04,24.50
2017,08,02,11,05,24.50
2017,08,02,11,06,24.40
2017,08,02,11,07,24.40
2017,08,02,11,08,24.40
2017,08,02,11,09,24.40
2017,08,02,11,10,24.50
2017,08,02,11,11,24.50
2017,08,02,11,12,24.50
2017,08,02,11,13,24.60
2017,08,02,11,14,24.60
2017,08,02,11,15,24.60
2017,08,02,11,16,24.70
2017,08,02,11,17,24.80
2017,08,02,11,18,24.80
2017,08,02,11,19,24.80
2017,08,02,11,20,24.80
2017,08,02,11,21,24.90
2017,08,02,11,22,24.90
2017,08,02,11,23,24.90
2017,08,02,11,24,24.90
2017,08,02,11,25,25.00
2017,08,02,11,26,25.00
2017,08,02,11,27,25.00
2017,08,02,11,28,25.00
2017,08,02,11,29,24.90
2017,08,02,11,30,25.00
2017,08,02,11,31,25.00
2017,08,02,11,32,25.00
2017,08,02,11,33,25.00
2017,08,02,11,34,25.10
2017,08,02,11,35,25.10
2017,08,02,11,36,25.10
2017,08,02,11,37,25.10
2017,08,02,11,38,25.10
2017,08,02,11,39,25.10
2017,08,02,11,40,25.10
2017,08,02,11,41,25.20
2017,08,02,11,42,25.20
2017,08,02,11,43,25.30
2017,08,02,11,44,25.40
2017,08,02,11,45,25.50
2017,08,02,11,46,25.50
2017,08,02,11,47,25.50
2017,08,02,11,48,25.60
2017,08,02,11,49,25.60
2017,08,02,11,50,25.50
2017,08,02,11,51,25.40
2017,08,02,11,52,25.30
2017,08,02,11,53,25.20
2017,08,02,11,54,25.10
2017,08,02,11,55,25.00
2017,08,02,11,56,24.90
2017,08,02,11,57,24.90
2017,08,02,11,58,24.80
2017,08,02,11,59,24.70
2017,08,02,12,00,24.50
2017,08,02,12,01,24.50
2017,08,02,12,02,24.40
2017,08,02,12,03,24.20
2017,08,02,12,04,24.10
2017,08,02,12,05,24.10
2017,08,02,12,06,23.90
2017,08,02,12,07,23.90
2017,08,02,12,08,23.80
2017,08,02,12,09,23.80
2017,08,02,12,10,23.80
2017,08,02,12,11,23.90
2017,08,02,12,12,24.00
2017,08,02,12,13,24.10
2017,08,02,12,14,24.10
2017,08,02,12,15,24.10
2017,08,02,12,16,24.10
2017,08,02,12,17,24.10
2017,08,02,12,18,24.20
2017,08,02,12,19,24.20
2017,08,02,12,20,24.20
2017,08,02,12,21,24.20
2017,08,02,12,22,24.20
2017,08,02,12,23,24.10
2017,08,02,12,24,24.10
2017,08,02,12,25,24.10
2017,08,02,12,26,24.10
2017,08,02,12,27,24.10
2017,08,02,12,28,24.10
2017,08,02,12,29,24.10
2017,08,02,12,30,24.10
2017,08,02,12,31,24.10
2017,08,02,12,32,24.10
2017,08,02,12,33,24.10
2017,08,02,12,34,24.10
2017,08,02,12,35,24.10
2017,08,02,12,36,24.10
2017,08,02,12,37,24.10
2017,08,02,12,38,24.20
2017,08,02,12,39,24.20
2017,08,02,12,40,24.30
2017,08,02,12,41,24.20
2017,08,02,12,42,24.20
2017,08,02,12,43,24.30
2017,08,02,12,44,24.30
2017,08,02,12,45,24.30
2017,08,02,12,46,24.30
2017,08,02,12,47,24.40
2017,08,02,12,48,24.40
2017,08,02,12,49,24.40
2017,08,02,12,50,24.40
2017,08,02,12,51,24.40
2017,08,02,12,52,24.40
2017,08,02,12,53,24.50
2017,08,02,12,54,24.60
2017,08,02,12,55,24.80
2017,08,02,12,56,24.80
2017,08,02,12,57,24.90
2017,08,02,12,58,24.90
2017,08,02,12,59,24.90
2017,08,02,13,00,24.90
2017,08,02,13,01,24.90
2017,08,02,13,02,25.00
2017,08,02,13,03,25.10
2017,08,02,13,04,25.10
2017,08,02,13,05,25.10
2017,08,02,13,06,25.10
2017,08,02,13,07,25.20
2017,08,02,13,08,25.30
2017,08,02,13,09,25.40
2017,08,02,13,10,25.40
2017,08,02,13,11,25.50
2017,08,02,13,12,25.60
2017,08,02,13,13,25.70
2017,08,02,13,14,25.70
2017,08,02,13,15,25.70
2017,08,02,13,16,25.80
2017,08,02,13,17,25.80
2017,08,02,13,18,25.80
2017,08,02,13,19,25.90
2017,08,02,13,20,25.90
2017,08,02,13,21,26.00
2017,08,02,13,22,26.10
2017,08,02,13,23,26.10
2017,08,02,13,24,26.10
2017,08,02,13,25,26.20
2017,08,02,13,26,26.30
2017,08,02,13,27,26.30
2017,08,02,13,28,26.30
2017,08,02,13,29,26.40
2017,08,02,13,30,26.50
2017,08,02,13,31,26.60
2017,08,02,13,32,26.60
2017,08,02,13,33,26.70
2017,08,02,13,34,26.70
2017,08,02,13,35,26.80
2017,08,02,13,36,26.80
2017,08,02,13,37,26.80
2017,08,02,13,38,26.90
2017,08,02,13,39,26.90
2017,08,02,13,40,27.00
2017,08,02,13,41,27.10
2017,08,02,13,42,27.10
2017,08,02,13,43,27.20
2017,08,02,13,44,27.30
2017,08,02,13,45,27.30
2017,08,02,13,46,27.40
2017,08,02,13,47,27.40
2017,08,02,13,48,27.40
2017,08,02,13,49,27.40
2017,08,02,13,50,27.40
2017,08,02,13,51,27.50
2017,08,02,13,52,27.60
2017,08,02,13,53,27.60
2017,08,02,13,54,27.50
2017,08,02,13,55,27.40
2017,08,02,13,56,27.40
2017,08,02,13,57,27.40
2017,08,02,13,58,27.40
2017,08,02,13,59,27.40
2017,08,02,14,00,27.40
2017,08,02,14,01,27.40
2017,08,02,14,02,27.30
2017,08,02,14,03,27.30
2017,08,02,14,04,27.30
2017,08,02,14,05,27.30
2017,08,02,14,06,27.30
2017,08,02,14,07,27.20
2017,08,02,14,08,27.20
2017,08,02,14,09,27.10
2017,08,02,14,10,27.10
2017,08,02,14,11,27.10
2017,08,02,14,12,27.10
2017,08,02,14,13,27.10
2017,08,02,14,14,27.10
2017,08,02,14,15,27.10
2017,08,02,14,16,27.10
2017,08,02,14,17,27.10
2017,08,02,14,18,26.90
2017,08,02,14,19,26.90
2017,08,02,14,20,27.00
2017,08,02,14,21,27.10
2017,08,02,14,22,27.10
2017,08,02,14,23,27.10
2017,08,02,14,24,27.00
2017,08,02,14,25,26.90
2017,08,02,14,26,26.90
2017,08,02,14,27,26.80
2017,08,02,14,28,26.70
2017,08,02,14,29,26.70
2017,08,02,14,30,26.70
2017,08,02,14,31,26.60
2017,08,02,14,32,26.60
2017,08,02,14,33,26.60
2017,08,02,14,34,26.60
2017,08,02,14,35,26.70
2017,08,02,14,36,26.70
2017,08,02,14,37,26.70
2017,08,02,14,38,26.80
2017,08,02,14,39,26.90
2017,08,02,14,40,27.00
2017,08,02,14,41,27.10
2017,08,02,14,42,27.20
2017,08,02,14,43,27.20
2017,08,02,14,44,27.30
2017,08,02,14,45,27.30
2017,08,02,14,46,27.30
2017,08,02,14,47,27.30
2017,08,02,14,48,27.40
2017,08,02,14,49,27.40
2017,08,02,14,50,27.60
2017,08,02,14,51,27.60
2017,08,02,14,52,27.70
2017,08,02,14,53,27.70
2017,08,02,14,54,27.80
2017,08,02,14,55,27.80
2017,08,02,14,56,27.80
2017,08,02,14,57,27.80
2017,08,02,14,58,27.90
2017,08,02,14,59,27.90
2017,08,02,15,00,28.00
2017,08,02,15,01,28.00
2017,08,02,15,02,28.10
2017,08,02,15,03,28.20
2017,08,02,15,04,28.20
2017,08,02,15,05,28.30
2017,08,02,15,06,28.30
2017,08,02,15,07,28.40
2017,08,02,15,08,28.40
2017,08,02,15,09,28.50
2017,08,02,15,10,28.60
2017,08,02,15,11,28.60
2017,08,02,15,12,28.60
2017,08,02,15,13,28.50
2017,08,02,15,14,28.50
2017,08,02,15,15,28.40
2017,08,02,15,16,28.50
2017,08,02,15,17,28.60
2017,08,02,15,18,28.60
2017,08,02,15,19,28.70
2017,08,02,15,20,28.70
2017,08,02,15,21,28.80
2017,08,02,15,22,28.90
2017,08,02,15,23,28.90
2017,08,02,15,24,28.90
2017,08,02,15,25,28.90
2017,08,02,15,26,28.90
2017,08,02,15,27,28.90
2017,08,02,15,28,28.90
2017,08,02,15,29,28.90
2017,08,02,15,30,28.90
2017,08,02,15,31,28.90
2017,08,02,15,32,29.00
2017,08,02,15,33,29.10
2017,08,02,15,34,29.20
2017,08,02,15,35,29.20
2017,08,02,15,36,29.20
2017,08,02,15,37,29.30
2017,08,02,15,38,29.40
2017,08,02,15,39,29.40
2017,08,02,15,40,29.50
2017,08,02,15,41,29.50
2017,08,02,15,42,29.50
2017,08,02,15,43,29.50
2017,08,02,15,44,29.50
2017,08,02,15,45,29.40
2017,08,02,15,46,29.40
2017,08,02,15,47,29.40
2017,08,02,15,48,29.40
2017,08,02,15,49,29.50
2017,08,02,15,50,29.50
2017,08,02,15,51,29.50
2017,08,02,15,52,29.50
2017,08,02,15,53,29.50
2017,08,02,15,54,29.50
2017,08,02,15,55,29.50
2017,08,02,15,56,29.50
2017,08,02,15,57,29.60
2017,08,02,15,58,29.50
2017,08,02,15,59,29.50
2017,08,02,16,00,29.50
2017,08,02,16,01,29.60
2017,08,02,16,02,29.60
2017,08,02,16,03,29.50
2017,08,02,16,04,29.50
2017,08,02,16,05,29.40
2017,08,02,16,06,29.40
2017,08,02,16,07,29.40
2017,08,02,16,08,29.50
2017,08,02,16,09,29.50
2017,08,02,16,10,29.50
2017,08,02,16,11,29.50
2017,08,02,16,12,29.60
2017,08,02,16,13,29.60
2017,08,02,16,14,29.60
2017,08,02,16,15,29.60
2017,08,02,16,16,29.50
2017,08,02,16,17,29.50
2017,08,02,16,18,29.50
2017,08,02,16,19,29.50
2017,08,02,16,20,29.50
2017,08,02,16,21,29.50
2017,08,02,16,22,29.50
2017,08,02,16,23,29.50
2017,08,02,16,24,29.50
2017,08,02,16,25,29.60
2017,08,02,16,26,29.70
2017,08,02,16,27,29.70
2017,08,02,16,28,29.70
2017,08,02,16,29,29.60
2017,08,02,16,30,29.60
2017,08,02,16,31,29.60
2017,08,02,16,32,29.50
2017,08,02,16,33,29.50
2017,08,02,16,34,29.50
2017,08,02,16,35,29.50
2017,08,02,16,36,29.50
2017,08,02,16,37,29.50
2017,08,02,16,38,29.50
2017,08,02,16,39,29.40
2017,08,02,16,40,29.40
2017,08,02,16,41,29.40
2017,08,02,16,42,29.40
2017,08,02,16,43,29.40
2017,08,02,16,44,29.40
2017,08,02,16,45,29.40
2017,08,02,16,46,29.40
2017,08,02,16,47,29.40
2017,08,02,16,48,29.40
2017,08,02,16,49,29.30
2017,08,02,16,50,29.30
2017,08,02,16,51,29.30
2017,08,02,16,52,29.30
2017,08,02,16,53,29.30
2017,08,02,16,54,29.40
2017,08,02,16,55,29.40
2017,08,02,16,56,29.40
2017,08,02,16,57,29.40
2017,08,02,16,58,29.50
2017,08,02,16,59,29.50
2017,08,02,17,00,29.40
2017,08,02,17,01,29.40
2017,08,02,17,02,29.40
2017,08,02,17,03,29.40
2017,08,02,17,04,29.40
2017,08,02,17,05,29.40
2017,08,02,17,06,29.50
2017,08,02,17,07,29.50
2017,08,02,17,08,29.50
2017,08,02,17,09,29.60
2017,08,02,17,10,29.60
2017,08,02,17,11,29.70
2017,08,02,17,12,29.70
2017,08,02,17,13,29.70
2017,08,02,17,14,29.80
2017,08,02,17,15,29.80
2017,08,02,17,16,29.80
2017,08,02,17,17,29.90
2017,08,02,17,18,29.90
2017,08,02,17,19,29.90
2017,08,02,17,20,29.90
2017,08,02,17,21,29.90
2017,08,02,17,22,29.80
2017,08,02,17,23,29.80
2017,08,02,17,24,29.80
2017,08,02,17,25,29.80
2017,08,02,17,26,29.90
2017,08,02,17,27,29.90
2017,08,02,17,28,29.90
2017,08,02,17,29,29.90
2017,08,02,17,30,29.90
2017,08,02,17,31,29.90
2017,08,02,17,32,29.90
2017,08,02,17,33,29.90
2017,08,02,17,34,29.90
2017,08,02,17,35,29.90
2017,08,02,17,36,29.90
2017,08,02,17,37,30.00
2017,08,02,17,38,30.10
2017,08,02,17,39,30.10
2017,08,02,17,40,30.10
2017,08,02,17,41,30.10
2017,08,02,17,42,30.10
2017,08,02,17,43,30.10
2017,08,02,17,44,30.10
2017,08,02,17,45,30.10
2017,08,02,17,46,30.10
2017,08,02,17,47,30.10
2017,08,02,17,48,30.00
2017,08,02,17,49,29.90
2017,08,02,17,50,29.90
2017,08,02,17,51,29.80
2017,08,02,17,52,29.80
2017,08,02,17,53,29.70
2017,08,02,17,54,29.70
2017,08,02,17,55,29.70
2017,08,02,17,56,29.70
2017,08,02,17,57,29.70
2017,08,02,17,58,29.80
2017,08,02,17,59,29.80
2017,08,02,18,00,29.80
2017,08,02,18,01,29.80
2017,08,02,18,02,29.80
2017,08,02,18,03,29.80
2017,08,02,18,04,29.80
2017,08,02,18,05,29.80
2017,08,02,18,06,29.80
2017,08,02,18,07,29.80
2017,08,02,18,08,29.70
2017,08,02,18,09,29.70
2017,08,02,18,10,29.70
2017,08,02,18,11,29.70
2017,08,02,18,12,29.70
2017,08,02,18,13,29.70
2017,08,02,18,14,29.70
2017,08,02,18,15,29.70
2017,08,02,18,16,29.70
2017,08,02,18,17,29.70
2017,08,02,18,18,29.70
2017,08,02,18,19,29.70
2017,08,02,18,20,29.70
2017,08,02,18,21,29.70
2017,08,02,18,22,29.70
2017,08,02,18,23,29.70
2017,08,02,18,24,29.70
2017,08,02,18,25,29.70
2017,08,02,18,26,29.70
2017,08,02,18,27,29.80
2017,08,02,18,28,29.80
2017,08,02,18,29,29.80
2017,08,02,18,30,29.70
2017,08,02,18,31,29.70
2017,08,02,18,32,29.70
2017,08,02,18,33,29.70
2017,08,02,18,34,29.60
2017,08,02,18,35,29.60
2017,08,02,18,36,29.60
2017,08,02,18,37,29.60
2017,08,02,18,38,29.60
2017,08,02,18,39,29.60
2017,08,02,18,40,29.60
2017,08,02,18,41,29.60
2017,08,02,18,42,29.50
2017,08,02,18,43,29.50
2017,08,02,18,44,29.50
2017,08,02,18,45,29.60
2017,08,02,18,46,29.60
2017,08,02,18,47,29.60
2017,08,02,18,48,29.60
2017,08,02,18,49,29.60
2017,08,02,18,50,29.60
2017,08,02,18,51,29.70
2017,08,02,18,52,29.70
2017,08,02,18,53,29.70
2017,08,02,18,54,29.70
2017,08,02,18,55,29.70
2017,08,02,18,56,29.60
2017,08,02,18,57,29.60
2017,08,02,18,58,29.50
2017,08,02,18,59,29.50
2017,08,02,19,00,29.50
2017,08,02,19,01,29.50
2017,08,02,19,02,29.50
2017,08,02,19,03,29.50
2017,08,02,19,04,29.50
2017,08,02,19,05,29.50
2017,08,02,19,06,29.60
2017,08,02,19,07,29.60
2017,08,02,19,08,29.60
2017,08,02,19,09,29.60
2017,08,02,19,10,29.60
2017,08,02,19,11,29.60
2017,08,02,19,12,29.60
2017,08,02,19,13,29.60
2017,08,02,19,14,29.60
2017,08,02,19,15,29.60
2017,08,02,19,16,29.60
2017,08,02,19,17,29.50
2017,08,02,19,18,29.60
2017,08,02,19,19,29.60
2017,08,02,19,20,29.60
2017,08,02,19,21,29.60
2017,08,02,19,22,29.60
2017,08,02,19,23,29.60
2017,08,02,19,24,29.60
2017,08,02,19,25,29.60
2017,08,02,19,26,29.60
2017,08,02,19,27,29.60
2017,08,02,19,28,29.50
2017,08,02,19,29,29.50
2017,08,02,19,30,29.50
2017,08,02,19,31,29.50
2017,08,02,19,32,29.50
2017,08,02,19,33,29.50
2017,08,02,19,34,29.40
2017,08,02,19,35,29.40
2017,08,02,19,36,29.30
2017,08,02,19,37,29.30
2017,08,02,19,38,29.30
2017,08,02,19,39,29.20
2017,08,02,19,40,29.20
2017,08,02,19,41,29.20
2017,08,02,19,42,29.10
2017,08,02,19,43,29.10
2017,08,02,19,44,29.10
2017,08,02,19,45,29.10
2017,08,02,19,46,29.10
2017,08,02,19,47,29.10
2017,08,02,19,48,29.10
2017,08,02,19,49,29.10
2017,08,02,19,50,29.10
2017,08,02,19,51,29.10
2017,08,02,19,52,29.10
2017,08,02,19,53,29.10
2017,08,02,19,54,29.10
2017,08,02,19,55,29.10
2017,08,02,19,56,29.10
2017,08,02,19,57,29.00
2017,08,02,19,58,28.90
2017,08,02,19,59,28.90
2017,08,02,20,00,28.90
2017,08,02,20,01,28.90
2017,08,02,20,02,28.90
2017,08,02,20,03,28.90
2017,08,02,20,04,28.90
2017,08,02,20,05,28.90
2017,08,02,20,06,28.90
2017,08,02,20,07,28.90
2017,08,02,20,08,28.90
2017,08,02,20,09,28.90
2017,08,02,20,10,28.90
2017,08,02,20,11,28.90
2017,08,02,20,12,28.90
2017,08,02,20,13,28.90
2017,08,02,20,14,28.90
2017,08,02,20,15,28.80
2017,08,02,20,16,28.80
2017,08,02,20,17,28.80
2017,08,02,20,18,28.70
2017,08,02,20,19,28.70
2017,08,02,20,20,28.70
2017,08,02,20,21,28.70
2017,08,02,20,22,28.60
2017,08,02,20,23,28.60
2017,08,02,20,24,28.60
2017,08,02,20,25,28.50
2017,08,02,20,26,28.40
2017,08,02,20,27,28.40
2017,08,02,20,28,28.40
2017,08,02,20,29,28.40
2017,08,02,20,30,28.40
2017,08,02,20,31,28.40
2017,08,02,20,32,28.40
2017,08,02,20,33,28.40
2017,08,02,20,34,28.40
2017,08,02,20,35,28.40
2017,08,02,20,36,28.40
2017,08,02,20,37,28.40
